Total_Precipitation_Accumulation
1.13 1.24 1.24 1.31 1.30 1.33 1.37 1.35 1.31 1.29 1.26 1.26 1.26 1.24 1.22 1.26 1.33 1.38 1.31 1.29 1.26 1.28 1.27 1.29 1.30 1.38 1.44 1.42 1.50 1.54 1.60 1.73 1.61 1.35 1.40 1.49 1.47 1.31 1.26 1.24 1.21 1.20 1.18
0.92 0.95 1.00 1.08 1.13 1.13 1.15 1.24 1.31 1.27 1.21 1.26 1.29 1.23 1.13 1.19 1.31 1.33 1.27 1.29 1.31 1.27 1.31 1.43 1.37 1.40 1.50 1.54 1.68 1.65 1.71 1.93 1.92 1.70 1.66 1.72 1.60 1.50 1.41 1.32 1.16 1.10 1.11
0.81 0.84 0.90 0.96 0.98 0.99 1.04 1.14 1.24 1.28 1.29 1.26 1.23 1.14 1.12 1.14 1.18 1.22 1.29 1.38 1.42 1.43 1.47 1.54 1.57 1.68 1.64 1.67 1.73 1.73 1.79 2.01 2.19 2.04 1.93 1.99 1.94 1.70 1.59 1.38 1.24 1.25 1.09
0.88 0.97 1.07 1.10 1.10 1.10 1.12 1.19 1.28 1.34 1.34 1.38 1.38 1.40 1.39 1.33 1.30 1.32 1.38 1.42 1.45 1.49 1.58 1.59 1.61 1.69 1.75 1.84 1.86 1.95 2.08 2.26 2.42 2.34 2.27 2.31 2.30 2.12 1.90 1.57 1.46 1.39 1.25
1.10 1.19 1.35 1.47 1.48 1.38 1.37 1.45 1.52 1.56 1.56 1.69 1.69 1.66 1.67 1.62 1.45 1.50 1.55 1.49 1.57 1.51 1.56 1.58 1.54 1.60 1.69 1.80 1.80 1.95 2.19 2.41 2.58 2.63 2.62 2.75 2.65 2.47 2.16 1.82 1.72 1.62 1.48
0.96 1.07 1.25 1.42 1.50 1.49 1.52 1.62 1.69 1.70 1.78 1.83 1.76 1.74 1.72 1.51 1.60 1.65 1.62 1.68 1.72 1.67 1.68 1.69 1.63 1.57 1.55 1.60 1.68 1.78 1.93 2.14 2.40 2.60 2.69 2.77 2.80 2.65 2.44 2.18 1.85 1.59 1.45
1.11 1.25 1.33 1.43 1.53 1.57 1.55 1.62 1.69 1.71 1.69 1.75 1.76 1.74 1.63 1.57 1.54 1.43 1.44 1.46 1.57 1.63 1.64 1.65 1.51 1.41 1.45 1.40 1.51 1.55 1.56 1.65 1.78 2.02 2.23 2.28 2.46 2.55 2.45 2.13 1.83 1.58 1.39
1.08 1.18 1.25 1.38 1.51 1.62 1.76 1.83 1.88 1.93 1.93 1.91 1.84 1.79 1.75 1.64 1.51 1.37 1.39 1.30 1.35 1.39 1.43 1.46 1.48 1.40 1.40 1.46 1.46 1.37 1.26 1.26 1.34 1.37 1.49 1.73 1.98 2.25 2.32 2.20 2.11 1.84 1.56
1.18 1.35 1.47 1.53 1.65 1.71 1.76 1.89 1.99 2.05 2.01 2.00 1.98 2.00 2.01 1.98 1.87 1.59 1.48 1.41 1.49 1.49 1.48 1.47 1.48 1.38 1.43 1.34 1.30 1.27 1.19 1.15 1.16 1.21 1.28 1.48 1.74 1.94 2.13 2.12 2.05 1.93 1.69
1.40 1.48 1.58 1.71 1.76 1.75 1.74 1.79 1.83 1.89 1.92 1.94 1.91 1.98 1.97 1.99 2.04 1.72 1.49 1.34 1.41 1.45 1.51 1.51 1.53 1.41 1.46 1.38 1.35 1.36 1.27 1.19 1.17 1.16 1.18 1.24 1.32 1.58 1.85 1.85 1.81 1.82 1.69
1.47 1.50 1.59 1.69 1.84 1.89 1.90 1.81 1.73 1.73 1.76 1.82 1.85 1.93 1.99 1.98 1.94 1.60 1.44 1.37 1.44 1.48 1.44 1.41 1.47 1.48 1.32 1.21 1.13 1.13 1.17 1.16 1.17 1.15 1.12 1.14 1.21 1.31 1.51 1.61 1.66 1.61 1.54
1.47 1.53 1.60 1.63 1.63 1.65 1.81 1.83 1.78 1.76 1.75 1.77 1.85 1.87 1.85 1.82 1.70 1.40 1.16 1.15 1.24 1.29 1.31 1.29 1.30 1.26 1.09 0.97 0.85 0.83 0.86 0.83 0.90 1.00 1.03 1.02 1.05 1.12 1.27 1.51 1.65 1.63 1.49
1.55 1.67 1.74 1.71 1.70 1.69 1.69 1.75 1.71 1.63 1.53 1.49 1.59 1.66 1.68 1.70 1.60 1.33 1.09 1.01 1.04 1.02 1.11 1.29 1.28 1.15 1.05 0.98 0.92 0.83 0.74 0.68 0.76 0.85 0.83 0.84 0.87 0.95 1.11 1.41 1.66 1.82 1.71
1.69 1.69 1.69 1.70 1.64 1.66 1.75 1.67 1.61 1.59 1.50 1.38 1.48 1.59 1.66 1.67 1.57 1.38 1.23 1.15 1.12 1.08 1.11 1.26 1.33 1.32 1.23 1.14 1.03 0.86 0.71 0.69 0.71 0.76 0.80 0.82 0.90 0.98 1.08 1.16 1.39 1.60 1.68
1.57 1.47 1.47 1.50 1.46 1.43 1.52 1.58 1.46 1.40 1.43 1.39 1.50 1.69 1.68 1.56 1.44 1.28 1.13 1.12 1.13 1.19 1.21 1.34 1.47 1.48 1.45 1.34 1.18 1.02 0.90 0.85 0.81 0.80 0.88 0.90 0.93 0.96 0.98 1.02 1.17 1.32 1.34
1.60 1.52 1.46 1.41 1.42 1.46 1.44 1.42 1.37 1.20 1.19 1.16 1.20 1.28 1.35 1.29 1.18 1.06 0.98 0.97 0.94 0.96 1.00 1.21 1.48 1.55 1.56 1.53 1.42 1.23 1.08 0.99 0.94 0.92 0.94 0.94 0.94 0.98 1.01 1.06 1.13 1.23 1.24
1.59 1.61 1.54 1.36 1.27 1.24 1.26 1.27 1.27 1.17 0.95 0.89 0.87 0.84 0.83 0.83 0.81 0.85 0.87 0.82 0.76 0.70 0.71 0.91 1.21 1.44 1.53 1.56 1.49 1.30 1.13 1.07 1.09 1.04 1.00 0.99 0.98 1.00 1.07 1.11 1.14 1.21 1.26
1.36 1.41 1.36 1.25 1.18 1.10 1.07 1.04 1.03 1.11 1.09 0.94 0.81 0.72 0.68 0.65 0.67 0.83 0.92 0.74 0.61 0.56 0.56 0.73 0.99 1.26 1.36 1.42 1.41 1.36 1.25 1.21 1.18 1.13 1.09 1.07 1.05 1.07 1.06 1.09 1.13 1.16 1.19
1.21 1.23 1.18 1.19 1.24 1.21 1.19 1.13 1.05 1.04 1.14 1.18 1.07 0.84 0.76 0.72 0.74 0.94 1.02 0.74 0.65 0.70 0.71 0.78 0.93 1.15 1.31 1.41 1.44 1.41 1.35 1.31 1.28 1.27 1.22 1.19 1.16 1.20 1.16 1.10 1.13 1.22 1.25
1.17 1.25 1.18 1.09 1.11 1.17 1.17 1.12 1.14 1.22 1.23 1.33 1.33 1.06 0.87 0.82 0.81 1.05 1.16 0.99 0.93 0.94 0.92 0.93 1.00 1.14 1.30 1.42 1.45 1.41 1.41 1.40 1.40 1.38 1.33 1.29 1.24 1.24 1.25 1.22 1.24 1.28 1.24
1.11 1.13 1.14 1.08 1.07 1.09 1.09 1.09 1.11 1.21 1.32 1.39 1.37 1.17 1.02 0.92 1.00 1.20 1.36 1.24 1.13 1.11 1.08 1.05 1.07 1.17 1.26 1.37 1.38 1.34 1.35 1.41 1.40 1.37 1.33 1.32 1.27 1.24 1.24 1.26 1.25 1.29 1.27
1.03 1.07 1.07 1.06 1.06 1.05 1.06 1.12 1.18 1.30 1.42 1.48 1.38 1.23 1.20 1.13 1.19 1.33 1.36 1.29 1.21 1.15 1.11 1.10 1.15 1.23 1.27 1.29 1.30 1.30 1.32 1.35 1.34 1.34 1.37 1.37 1.35 1.31 1.31 1.28 1.26 1.28 1.31
0.88 0.93 0.98 1.01 1.00 0.97 0.98 1.02 1.06 1.15 1.29 1.37 1.31 1.27 1.28 1.32 1.31 1.35 1.39 1.35 1.27 1.23 1.15 1.13 1.14 1.14 1.15 1.15 1.12 1.16 1.20 1.20 1.18 1.21 1.29 1.34 1.37 1.35 1.31 1.27 1.23 1.26 1.29
0.64 0.64 0.66 0.69 0.72 0.76 0.80 0.83 0.84 0.90 1.03 1.11 1.07 1.13 1.17 1.20 1.18 1.20 1.23 1.22 1.20 1.20 1.16 1.08 1.05 1.04 1.01 0.99 0.98 0.98 0.99 1.03 1.04 1.08 1.13 1.22 1.28 1.32 1.32 1.28 1.28 1.29 1.32
0.58 0.58 0.56 0.58 0.60 0.64 0.68 0.72 0.80 0.88 0.92 0.96 1.00 1.03 1.06 1.07 1.07 1.09 1.07 1.05 1.04 1.03 0.97 0.95 0.96 0.97 0.99 0.92 0.84 0.79 0.81 0.81 0.84 0.91 0.96 1.06 1.14 1.20 1.24 1.24 1.28 1.33 1.34
0.56 0.59 0.59 0.62 0.64 0.67 0.70 0.74 0.79 0.79 0.80 0.83 0.87 0.95 1.02 1.01 0.99 0.99 0.95 0.93 0.94 0.92 0.88 0.86 0.84 0.85 0.85 0.82 0.77 0.75 0.70 0.65 0.68 0.76 0.79 0.88 1.00 1.07 1.11 1.15 1.15 1.22 1.25